| time (UTC) | temp C | wind direction | speed KPH | gust KPH | rain 1hr cm | rain 24hr cm | rain mn cm | humidity % | barometer mb |
| 20260505192037 | 18 | 90 | 3.2 | 8.0 | 0.00 | 0.00 | 0.00 | 53 | 1005.1 |
| 20260505191016 | 18 | 90 | 6.4 | 17.7 | 0.00 | 0.00 | 0.00 | 52 | 1005.1 |
| 20260505190036 | 19 | 90 | 6.4 | 16.1 | 0.00 | 0.00 | 0.00 | 51 | 1005.1 |
| 20260505185016 | 19 | 90 | 8.0 | 19.3 | 0.00 | 0.00 | 0.00 | 50 | 1005.0 |
| 20260505184016 | 19 | 90 | 6.4 | 12.9 | 0.00 | 0.00 | 0.00 | 49 | 1005.0 |
| 20260505183016 | 20 | 90 | 8.0 | 17.7 | 0.00 | 0.00 | 0.00 | 48 | 1005.0 |
| 20260505182016 | 20 | 90 | 4.8 | 12.9 | 0.00 | 0.00 | 0.00 | 47 | 1004.7 |
| 20260505181016 | 20 | 90 | 6.4 | 12.9 | 0.00 | 0.00 | 0.00 | 47 | 1004.8 |
| 20260505180016 | 20 | 113 | 8.0 | 16.1 | 0.00 | 0.00 | 0.00 | 46 | 1004.6 |
| 20260505175016 | 20 | 90 | 6.4 | 14.5 | 0.00 | 0.00 | 0.00 | 47 | 1004.7 |
| 20260505174016 | 20 | 90 | 6.4 | 17.7 | 0.00 | 0.00 | 0.00 | 47 | 1004.7 |
| 20260505173016 | 21 | 113 | 6.4 | 14.5 | 0.00 | 0.00 | 0.00 | 46 | 1005.1 |
| 20260505172016 | 21 | 113 | 6.4 | 24.1 | 0.00 | 0.00 | 0.00 | 46 | 1004.7 |
| 20260505171016 | 21 | 90 | 4.8 | 12.9 | 0.00 | 0.00 | 0.00 | 45 | 1004.7 |
| 20260505170016 | 21 | 90 | 11.3 | 27.4 | 0.00 | 0.00 | 0.00 | 44 | 1004.7 |
| 20260505165016 | 22 | 90 | 6.4 | 17.7 | 0.00 | 0.00 | 0.00 | 43 | 1004.6 |
| 20260505164016 | 22 | 90 | 8.0 | 17.7 | 0.00 | 0.00 | 0.00 | 42 | 1005.0 |
| 20260505163016 | 23 | 90 | 6.4 | 16.1 | 0.00 | 0.00 | 0.00 | 41 | 1005.0 |
| 20260505162016 | 23 | 90 | 3.2 | 14.5 | 0.00 | 0.00 | 0.00 | 41 | 1004.8 |
| 20260505161016 | 24 | 113 | 6.4 | 19.3 | 0.00 | 0.00 | 0.00 | 38 | 1004.8 |
| 20260505153016 | 26 | 90 | 4.8 | 14.5 | 0.00 | 0.00 | 0.00 | 35 | 1004.8 |
| 20260505152016 | 26 | 113 | 4.8 | 14.5 | 0.00 | 0.00 | 0.00 | 35 | 1004.7 |
| 20260505151016 | 26 | 113 | 8.0 | 22.5 | 0.00 | 0.00 | 0.00 | 36 | 1004.7 |
| 20260505125016 | 26 | 90 | 6.4 | 16.1 | 0.00 | 0.00 | 0.00 | 34 | 1006.6 |
| 20260505124017 | 26 | 90 | 6.4 | 14.5 | 0.00 | 0.00 | 0.00 | 32 | 1006.7 |
| 20260505123016 | 27 | 90 | 6.4 | 19.3 | 0.00 | 0.00 | 0.00 | 30 | 1006.8 |
| 20260505122016 | 26 | 90 | 6.4 | 17.7 | 0.00 | 0.00 | 0.00 | 35 | 1007.0 |
| 20260505121016 | 26 | 90 | 6.4 | 16.1 | 0.00 | 0.00 | 0.00 | 32 | 1006.9 |
| 20260505120016 | 26 | 113 | 4.8 | 9.7 | 0.00 | 0.00 | 0.00 | 34 | 1006.8 |
| 20260505115016 | 26 | 90 | 6.4 | 16.1 | 0.00 | 0.00 | 0.00 | 34 | 1007.1 |
| 20260505114016 | 26 | 90 | 8.0 | 16.1 | 0.00 | 0.00 | 0.00 | 34 | 1007.1 |
| 20260505113036 | 25 | 90 | 6.4 | 22.5 | 0.00 | 0.00 | 0.00 | 36 | 1007.4 |
| 20260505112016 | 25 | 90 | 6.4 | 17.7 | 0.00 | 0.00 | 0.00 | 36 | 1007.5 |
| 20260505111016 | 25 | 90 | 6.4 | 14.5 | 0.00 | 0.00 | 0.00 | 35 | 1007.5 |
| 20260505102016 | 23 | 90 | 3.2 | 9.7 | 0.00 | 0.00 | 0.00 | 42 | 1008.1 |
| 20260505101057 | 23 | 113 | 4.8 | 11.3 | 0.00 | 0.00 | 0.00 | 42 | 1008.3 |
| 20260505100016 | 23 | 90 | 4.8 | 14.5 | 0.00 | 0.00 | 0.00 | 40 | 1008.4 |
| 20260505095016 | 23 | 90 | 3.2 | 11.3 | 0.00 | 0.00 | 0.00 | 42 | 1008.4 |
| 20260505094016 | 23 | 90 | 3.2 | 8.0 | 0.00 | 0.00 | 0.00 | 42 | 1008.4 |
| 20260505093036 | 22 | 90 | 4.8 | 11.3 | 0.00 | 0.00 | 0.00 | 43 | 1008.7 |
| 20260505092016 | 22 | 90 | 4.8 | 9.7 | 0.00 | 0.00 | 0.00 | 43 | 1008.7 |
| 20260505091017 | 22 | 90 | 4.8 | 9.7 | 0.00 | 0.00 | 0.00 | 44 | 1008.8 |
| 20260505090017 | 21 | 90 | 6.4 | 19.3 | 0.00 | 0.00 | 0.00 | 43 | 1008.8 |
| 20260505085016 | 22 | 90 | 4.8 | 14.5 | 0.00 | 0.00 | 0.00 | 44 | 1008.8 |
| 20260505084016 | 21 | 90 | 1.6 | 4.8 | 0.00 | 0.00 | 0.00 | 47 | 1008.7 |
| 20260505083016 | 21 | 90 | 1.6 | 8.0 | 0.00 | 0.00 | 0.00 | 46 | 1008.7 |
| 20260505082017 | 21 | 90 | 1.6 | 6.4 | 0.00 | 0.00 | 0.00 | 46 | 1008.7 |
| 20260505081037 | 21 | 90 | 3.2 | 8.0 | 0.00 | 0.00 | 0.00 | 46 | 1008.8 |
| 20260505080016 | 20 | 90 | 4.8 | 9.7 | 0.00 | 0.00 | 0.00 | 47 | 1008.9 |
| 20260505075016 | 20 | 90 | 4.8 | 12.9 | 0.00 | 0.00 | 0.00 | 47 | 1008.8 |
| 20260505074016 | 20 | 90 | 1.6 | 4.8 | 0.00 | 0.00 | 0.00 | 50 | 1008.8 |
| 20260505073016 | 20 | 90 | 1.6 | 6.4 | 0.00 | 0.00 | 0.00 | 50 | 1009.0 |
| 20260505072036 | 19 | 0.0 | 4.8 | 0.00 | 0.00 | 0.00 | 52 | 1009.0 | |
| 20260505071037 | 18 | 90 | 1.6 | 6.4 | 0.00 | 0.00 | 0.00 | 53 | 1009.0 |
| 20260505070016 | 18 | 90 | 1.6 | 4.8 | 0.00 | 0.00 | 0.00 | 55 | 1009.1 |
| 20260505065016 | 17 | 0.0 | 4.8 | 0.00 | 0.00 | 0.00 | 55 | 1009.2 | |
| 20260505064016 | 17 | 0.0 | 0.0 | 0.00 | 0.00 | 0.00 | 56 | 1009.1 | |
| 20260505063017 | 16 | 90 | 1.6 | 6.4 | 0.00 | 0.00 | 0.00 | 55 | 1008.9 |
| 20260505062036 | 16 | 0.0 | 1.6 | 0.00 | 0.00 | 0.00 | 54 | 1009.0 | |
| 20260505061016 | 15 | 0.0 | 1.6 | 0.00 | 0.00 | 0.00 | 56 | 1009.0 | |
| 20260505060017 | 15 | 0.0 | 0.0 | 0.00 | 0.00 | 0.00 | 61 | 1008.9 | |
| 20260505055016 | 14 | 0.0 | 1.6 | 0.00 | 0.00 | 0.00 | 60 | 1008.9 | |
| 20260505054017 | 13 | 0.0 | 0.0 | 0.00 | 0.00 | 0.00 | 68 | 1008.9 | |
| 20260505053017 | 12 | 0.0 | 0.0 | 0.00 | 0.00 | 0.00 | 69 | 1008.9 | |
| 20260505052017 | 13 | 0.0 | 0.0 | 0.00 | 0.00 | 0.00 | 64 | 1008.8 | |
| 20260505051016 | 13 | 0.0 | 0.0 | 0.00 | 0.00 | 0.00 | 62 | 1008.8 | |
| 20260505041037 | 12 | 0.0 | 1.6 | 0.00 | 0.00 | 0.00 | 60 | 1008.8 | |
| 20260505040016 | 12 | 0.0 | 1.6 | 0.00 | 0.00 | 0.00 | 60 | 1008.8 | |
| 20260505035017 | 11 | 0.0 | 1.6 | 0.00 | 0.00 | 0.00 | 63 | 1008.8 | |
| 20260505034016 | 10 | 0.0 | 0.0 | 0.00 | 0.00 | 0.00 | 69 | 1008.8 | |
| 20260505033017 | 10 | 0.0 | 0.0 | 0.00 | 0.00 | 0.00 | 67 | 1008.8 | |
| 20260505032016 | 10 | 0.0 | 0.0 | 0.00 | 0.00 | 0.00 | 66 | 1009.0 | |
| 20260505031057 | 10 | 0.0 | 0.0 | 0.00 | 0.00 | 0.00 | 66 | 1009.0 | |
| 20260505030016 | 10 | 0.0 | 0.0 | 0.00 | 0.00 | 0.00 | 66 | 1009.1 | |
| 20260505025016 | 10 | 0.0 | 0.0 | 0.00 | 0.00 | 0.00 | 64 | 1009.2 | |
| 20260505024016 | 12 | 0.0 | 0.0 | 0.00 | 0.00 | 0.00 | 60 | 1009.2 | |
| 20260505023017 | 12 | 0.0 | 0.0 | 0.00 | 0.00 | 0.00 | 57 | 1009.2 | |
| 20260505022017 | 13 | 0.0 | 0.0 | 0.00 | 0.00 | 0.00 | 55 | 1009.1 | |
| 20260505021016 | 13 | 0.0 | 0.0 | 0.00 | 0.00 | 0.00 | 55 | 1009.2 | |
| 20260505020036 | 13 | 0.0 | 1.6 | 0.00 | 0.00 | 0.00 | 54 | 1009.3 | |
| 20260505015017 | 13 | 0.0 | 1.6 | 0.00 | 0.00 | 0.00 | 53 | 1009.3 | |
| 20260505014017 | 14 | 0.0 | 1.6 | 0.00 | 0.00 | 0.00 | 53 | 1009.3 | |
| 20260505013016 | 14 | 0.0 | 1.6 | 0.00 | 0.00 | 0.00 | 52 | 1009.4 | |
| 20260505012016 | 15 | 90 | 1.6 | 3.2 | 0.00 | 0.00 | 0.00 | 51 | 1009.5 |
| 20260505011016 | 15 | 0.0 | 1.6 | 0.00 | 0.00 | 0.00 | 49 | 1009.6 | |
| 20260505010016 | 15 | 0.0 | 1.6 | 0.00 | 0.00 | 0.00 | 49 | 1009.7 | |
| 20260505005016 | 15 | 90 | 1.6 | 4.8 | 0.00 | 0.00 | 0.00 | 49 | 1009.7 |
| 20260505004017 | 15 | 0.0 | 1.6 | 0.00 | 0.00 | 0.00 | 50 | 1009.7 | |
| 20260505003016 | 15 | 0.0 | 1.6 | 0.00 | 0.00 | 0.00 | 52 | 1009.8 | |
| 20260505002017 | 15 | 0.0 | 1.6 | 0.00 | 0.00 | 0.00 | 51 | 1009.9 | |
| 20260505001017 | 16 | 0.0 | 1.6 | 0.00 | 0.00 | 0.00 | 49 | 1009.8 | |
| 20260505000016 | 16 | 0.0 | 1.6 | 0.00 | 0.00 | 0.00 | 50 | 1010.0 | |
| 20260504235016 | 16 | 0.0 | 3.2 | 0.00 | 0.00 | 0.00 | 49 | 1010.2 | |
| 20260504234016 | 16 | 90 | 1.6 | 4.8 | 0.00 | 0.00 | 0.00 | 49 | 1010.3 |
| 20260504233017 | 16 | 0.0 | 3.2 | 0.00 | 0.00 | 0.00 | 49 | 1010.5 | |
| 20260504232036 | 16 | 0.0 | 0.0 | 0.00 | 0.00 | 0.00 | 48 | 1010.5 | |
| 20260504231016 | 17 | 0.0 | 0.0 | 0.00 | 0.00 | 0.00 | 47 | 1010.6 | |
| 20260504230037 | 17 | 0.0 | 0.0 | 0.00 | 0.00 | 0.00 | 46 | 1010.6 | |
| 20260504225016 | 17 | 90 | 1.6 | 4.8 | 0.00 | 0.00 | 0.00 | 46 | 1010.7 |
| 20260504224017 | 17 | 90 | 3.2 | 6.4 | 0.00 | 0.00 | 0.00 | 45 | 1010.8 |
| 20260504223016 | 17 | 90 | 3.2 | 4.8 | 0.00 | 0.00 | 0.00 | 44 | 1010.8 |
| 20260504222017 | 17 | 90 | 3.2 | 8.0 | 0.00 | 0.00 | 0.00 | 44 | 1011.0 |
| 20260504221017 | 18 | 90 | 3.2 | 8.0 | 0.00 | 0.00 | 0.00 | 43 | 1011.0 |
| 20260504220016 | 18 | 90 | 3.2 | 8.0 | 0.00 | 0.00 | 0.00 | 43 | 1011.0 |
| 20260504215017 | 18 | 90 | 4.8 | 9.7 | 0.00 | 0.00 | 0.00 | 41 | 1011.0 |
| 20260504214016 | 18 | 90 | 3.2 | 9.7 | 0.00 | 0.00 | 0.00 | 41 | 1011.1 |
| 20260504213017 | 18 | 90 | 3.2 | 6.4 | 0.00 | 0.00 | 0.00 | 40 | 1011.2 |
| 20260504212017 | 18 | 90 | 3.2 | 6.4 | 0.00 | 0.00 | 0.00 | 40 | 1011.2 |
| 20260504211016 | 19 | 90 | 3.2 | 8.0 | 0.00 | 0.00 | 0.00 | 40 | 1011.2 |
| 20260504210036 | 19 | 90 | 3.2 | 9.7 | 0.00 | 0.00 | 0.00 | 39 | 1011.2 |
| 20260504205016 | 18 | 90 | 3.2 | 6.4 | 0.00 | 0.00 | 0.00 | 40 | 1011.3 |
| 20260504204037 | 18 | 90 | 1.6 | 6.4 | 0.00 | 0.00 | 0.00 | 40 | 1011.4 |
| 20260504203016 | 18 | 90 | 3.2 | 6.4 | 0.00 | 0.00 | 0.00 | 41 | 1011.3 |
| 20260504202016 | 19 | 113 | 1.6 | 11.3 | 0.00 | 0.00 | 0.00 | 40 | 1011.3 |
| 20260504201016 | 19 | 90 | 3.2 | 9.7 | 0.00 | 0.00 | 0.00 | 41 | 1011.4 |
| 20260504200037 | 18 | 90 | 1.6 | 8.0 | 0.00 | 0.00 | 0.00 | 41 | 1011.5 |
| 20260504195016 | 18 | 90 | 1.6 | 4.8 | 0.00 | 0.00 | 0.00 | 41 | 1011.4 |
| 20260504194017 | 19 | 90 | 3.2 | 6.4 | 0.00 | 0.00 | 0.00 | 41 | 1011.4 |
| 20260504193017 | 19 | 90 | 3.2 | 4.8 | 0.00 | 0.00 | 0.00 | 41 | 1011.5 |